Location: Jaite
(41.2884°N, 81.5737°W)
Time: 12:29:56
(UTC+00:00)

Cosmos 2082 Rocket - Pass Details

Date: 15 November 2025
Orbit: 834 x 851 km, 71.0° (Epoch: 11 December)

Event Time Altitude Azimuth Distance (km) Brightness Sun altitude
Rises 01:21:21 0° 326° (NW) 3,388 5.8 -36.4°
Reaches altitude 10° 01:24:02 10° 316° (NW) 2,449 5.1 -36.9°
Enters shadow 01:28:14 30° 269° (W) 1,454 3.8 -37.7°
